04.05.2024;20:00;83
04.05.2024;19:00;86
04.05.2024;18:00;85
04.05.2024;17:00;86
04.05.2024;16:00;86
04.05.2024;15:00;85
04.05.2024;14:00;86
04.05.2024;13:00;85
04.05.2024;12:00;83
04.05.2024;11:00;54
04.05.2024;10:00;22
04.05.2024;09:00;17
04.05.2024;08:00;20
04.05.2024;07:00;20
04.05.2024;06:00;32
04.05.2024;05:00;37
04.05.2024;04:00;34
04.05.2024;03:00;47
04.05.2024;02:00;53
04.05.2024;01:00;47
04.05.2024;00:00;50
03.05.2024;23:00;47
03.05.2024;22:00;61
03.05.2024;21:00;70
03.05.2024;20:00;72
03.05.2024;19:00;80
03.05.2024;18:00;81
03.05.2024;17:00;82
03.05.2024;16:00;84
03.05.2024;15:00;80
03.05.2024;14:00;81
03.05.2024;13:00;78
03.05.2024;12:00;77
03.05.2024;11:00;78
03.05.2024;10:00;79
03.05.2024;09:00;76
03.05.2024;08:00;78
03.05.2024;07:00;69
03.05.2024;06:00;65
03.05.2024;05:00;63
03.05.2024;04:00;59
03.05.2024;03:00;51
03.05.2024;02:00;49
03.05.2024;01:00;47
03.05.2024;00:00;47
02.05.2024;23:00;51
02.05.2024;22:00;52
02.05.2024;21:00;59
